Location: Andrest
(43.3200°N, 0.0641°E)
Time: 09:59:43
(UTC+00:00)

X-37B - Pass Details

Date: 01 December 2020
Orbit: 383 x 391 km, 45.1° (Epoch: 22 January)

Event Time Altitude Azimuth Distance (km) Brightness Sun altitude
Rises 18:55:02 0° 274° (W) 2,261 5.7 -26.6°
Reaches altitude 10° 18:57:07 10° 279° (W) 1,409 4.3 -27.0°
Enters shadow 18:58:06 18° 283° (WNW) 1,022 3.4 -27.2°
